Home   Weather   Kearney   Past weeks
Flag for USA

Past Weather in Kearney, Nebraska, USA — Yesterday and Last 2 Weeks

Now
46 °F

Passing clouds.


Feels Like: 41 °F
Forecast: 62 / 36 °F
Wind: 12 mph from Southwest

Location: Kearney Municipal

Current Time: Oct 23, 2019 at 5:35:48 am

Latest Report: Oct 23, 2019 at 4:56 am


Visibility: 10 mi

Pressure: 29.75 "Hg (27.47 "Hg at 655m altitude)

Humidity: 63%

Dew Point: 34 °F

Location of KearneyLocation

Past Weather in Kearney — Graph

°F

Kearney Temperature Yesterday

Maximum temperature yesterday: 61 °F (at 3:56 pm)
Minimum temperature yesterday: 35 °F (at 5:56 am)
Average temperature yesterday: 48 °F

High & Low Weather Summary for the Past Weeks

 TemperatureHumidityPressure
High79 °F (Oct 17, 3:56 pm)97% (Oct 10, 12:56 am)30.30 "Hg (Oct 10, 12:56 am)
Low25 °F (Oct 11, 7:56 am)19% (Oct 12, 2:56 pm)29.43 "Hg (Oct 18, 8:56 am)
Average49 °F60%29.88 "Hg
* Reported Oct 8 3:56 am — Oct 23 3:56 am, Kearney. Weather by CustomWeather, © 2019

Note: Actual official high and low records may vary slightly from our data, if they occured in-between our weather recording intervals... More about our weather records

Advertising

Kearney Weather History for the Previous 24 Hours

Scroll right to see more
 ConditionsComfort  
Time TempWeatherWind HumidityBarometerVisibility
3:56 am
Wed, Oct 23
51 °FPassing clouds.12 mph54%29.77 "Hg10 mi
2:56 am48 °FOvercast.10 mph68%29.79 "Hg10 mi
1:56 am48 °FOvercast.8 mph77%29.80 "Hg10 mi
12:56 am48 °FPassing clouds.8 mph89%29.82 "Hg10 mi
11:56 pm
Tue, Oct 22
51 °FLight rain. Overcast.5 mph80%29.87 "Hg10 mi
10:56 pm52 °FLight rain. Overcast.9 mph66%29.90 "Hg10 mi
9:56 pm54 °FPassing clouds.5 mph41%29.89 "Hg10 mi
8:56 pm52 °FOvercast.5 mph40%29.92 "Hg10 mi
7:56 pm53 °FClear.6 mph35%29.92 "Hg10 mi
6:56 pm56 °FClear.6 mph30%29.91 "Hg10 mi
5:56 pm59 °FSunny.10 mph26%29.92 "Hg10 mi
4:56 pm61 °FPassing clouds.16 mph25%29.93 "Hg10 mi
3:56 pm61 °FOvercast.16 mph24%29.94 "Hg10 mi
2:56 pm58 °FScattered clouds.16 mph28%29.96 "Hg10 mi
1:56 pm58 °FPassing clouds.17 mph26%29.98 "Hg10 mi
12:56 pm55 °FSunny.9 mph37%30.03 "Hg10 mi
11:56 am52 °FSunny.18 mph43%30.06 "Hg10 mi
10:56 am47 °FSunny.15 mph54%30.07 "Hg10 mi
9:56 am44 °FSunny.10 mph58%30.08 "Hg10 mi
8:56 am38 °FSunny.10 mph70%30.07 "Hg10 mi
7:56 am36 °FSunny.10 mph73%30.06 "Hg10 mi
6:56 am36 °FClear.12 mph73%30.04 "Hg10 mi
5:56 am35 °FClear.9 mph72%30.03 "Hg10 mi
Weather by CustomWeather, © 2019

See weather overview